Location: Goettingen
(51.5300°N, 9.9433°E)
Time: 17:38:12
(UTC+02:00)

ISS - Pass Details

Date: 11 May 2026
Orbit: 414 x 424 km, 51.6° (Epoch: 13 May)

Event Time Altitude Azimuth Distance (km) Brightness Sun altitude
Rises 00:05:47 0° 267° (W) 2,352 0.2 -18.9°
Reaches altitude 10° 00:07:53 10° 268° (W) 1,490 -0.8 -19.0°
Maximum altitude 00:11:14 87° 356° (N) 422 -3.8 -19.2°
Enters shadow 00:12:08 45° 84° (E) 575 -3.2 -19.2°
